This is the latest recevied weather packets stored in our database for station/object N2XP. If no packets are shown the sender has not sent any weather packets the latest 10 day(s).
| Time | Temp. | Humidity | Pressure | Rain* | Wind** | Luminosity | Snow |
|---|---|---|---|---|---|---|---|
| 1777828533 | 11.11° C | 43% | 1010.2 hPa | 0 mm | - | - | - |
| 1777827625 | 10.56° C | 47% | 1010.5 hPa | 0 mm | - | - | - |
| 1777826735 | 10° C | 50% | 1010.7 hPa | 0 mm | - | - | - |
| 1777825827 | 10° C | 46% | 1010.7 hPa | 0 mm | - | - | - |
| 1777824924 | 10° C | 47% | 1010.8 hPa | 0 mm | - | - | - |
| 1777824021 | 10° C | 49% | 1010.8 hPa | 0 mm | - | - | - |
| 1777823117 | 9.44° C | 50% | 1010.9 hPa | 0 mm | - | - | - |
| 1777822218 | 8.89° C | 50% | 1011 hPa | 0 mm | - | - | - |
| 1777821315 | 8.89° C | 53% | 1011 hPa | 0 mm | - | - | - |
| 1777820414 | 8.33° C | 52% | 1011 hPa | 0 mm | - | - | - |
| 1777819514 | 8.33° C | 52% | 1010.9 hPa | 0 mm | - | - | - |
| 1777818624 | 8.33° C | 52% | 1011 hPa | 0 mm | - | - | - |
| 1777817711 | 10° C | 51% | 1010.9 hPa | 0 mm | - | - | - |
| 1777816808 | 8.33° C | 55% | 1010.8 hPa | 0 mm | - | - | - |
| 1777815911 | 8.33° C | 54% | 1010.8 hPa | 0 mm | - | - | - |
| 1777815012 | 7.78° C | 56% | 1010.8 hPa | 0 mm | - | - | - |
| 1777814110 | 7.22° C | 60% | 1010.7 hPa | 0 mm | - | - | - |
| 1777813204 | 7.22° C | 59% | 1010.9 hPa | 0 mm | - | - | - |
| 1777812302 | 6.67° C | 62% | 1010.9 hPa | 0 mm | - | - | - |
| 1777811454 | 6.11° C | 63% | 1011 hPa | 0 mm | - | - | - |
| 1777810556 | 6.11° C | 65% | 1010.9 hPa | 0 mm | - | - | - |
| 1777809653 | 6.11° C | 66% | 1010.8 hPa | 0 mm | - | - | - |
| 1777808747 | 5.56° C | 68% | 1010.7 hPa | 0 mm | - | - | - |
| 1777807852 | 5.56° C | 70% | 1010.6 hPa | 0 mm | - | - | - |
| 1777806945 | 5° C | 70% | 1010.4 hPa | 0 mm | - | - | - |
* Rain latest hour (hover to see other rain measurements)
** Current wind speed in m/s (hover to see current wind gust speed)